Date String (YYYY-MM-DD hh:mm:ss) UTC,Instrument flags,Ambient pressure (hPa),Sample flow (lpm),Bypass flow (lpm),Sample temperature (°C),Ambient temperature (°C),ASC tube jacket temperature (°C),LED temperature (°C),Box temperature (°C),Sample RH (%),Span deviation,Mass concentration (μg/m³),Mass concentration (μg/m³),Mass concentration (μg/m³)
DateTimeUTC,F1_M11,P_M11,Q1_M11,Q2_M11,T1_M11,T2_M11,T3_M11,T4_M11,T5_M11,U1_M11,ZSPAN_M11,X2_M11,X0_M11,X1_M11
2023-05-15 12:00:00,,0842.8,5.00,0.00,28.5,26.8,00.0,36.8,30.1,26.6,0000.0,0001.19,0001.66,0000.96
2023-05-15 12:01:00,,0842.8,5.00,0.00,28.5,26.8,00.0,36.8,30.1,26.5,0000.0,0001.19,0001.67,0000.96
2023-05-15 12:02:00,,0842.8,5.00,0.00,28.5,26.8,00.0,36.8,30.1,26.5,0000.0,0001.19,0001.68,0000.96
2023-05-15 12:03:00,,0842.8,4.98,0.00,28.5,26.8,00.0,36.8,30.1,26.5,0000.0,0001.19,0001.68,0000.97
2023-05-15 12:04:00,,0842.8,5.00,0.00,28.5,26.8,00.0,36.8,30.1,26.6,0000.0,0001.18,0001.65,0000.95
2023-05-15 12:05:00,,0842.8,5.00,0.00,28.5,26.8,00.0,36.8,30.1,26.5,0000.0,0001.18,0001.68,0000.95
2023-05-15 12:06:00,,0842.8,5.01,0.00,28.5,26.8,00.0,36.8,30.1,26.5,0000.0,0001.19,0001.70,0000.96
2023-05-15 12:07:00,,0842.8,4.99,0.00,28.5,26.8,00.0,36.8,30.1,26.4,0000.0,0001.20,0001.71,0000.96
2023-05-15 12:08:00,,0842.8,5.00,0.00,28.5,26.8,00.0,36.8,30.1,26.5,0000.0,0001.16,0001.63,0000.95
2023-05-15 12:09:00,,0842.8,5.00,0.00,28.5,26.9,00.0,36.8,30.1,26.5,0000.0,0001.14,0001.64,0000.93
2023-05-15 12:10:00,,0842.8,4.98,0.00,28.5,26.9,00.0,36.8,30.1,26.4,0000.0,0001.12,0001.73,0000.92
2023-05-15 12:11:00,,0842.8,5.01,0.00,28.5,26.9,00.0,36.8,30.1,26.4,0000.0,0001.08,0001.66,0000.89
2023-05-15 12:12:00,,0842.8,5.01,0.00,28.5,26.9,00.0,36.8,30.1,26.3,0000.0,0001.05,0001.60,0000.87
2023-05-15 12:13:00,,0842.8,4.99,0.00,28.5,26.9,00.0,36.8,30.1,26.3,0000.0,0001.01,0001.55,0000.84
2023-05-15 12:14:00,,0842.8,4.98,0.00,28.5,26.9,00.0,36.8,30.1,26.2,0000.0,0000.95,0001.45,0000.80
2023-05-15 12:15:00,,0842.8,5.00,0.00,28.5,26.9,00.0,36.8,30.1,26.3,0000.0,0000.93,0001.44,0000.77
2023-05-15 12:16:00,,0842.8,5.00,0.00,28.5,26.9,00.0,36.8,30.1,26.3,0000.0,0000.91,0001.43,0000.74
2023-05-15 12:17:00,,0842.8,5.00,0.00,28.5,26.9,00.0,36.8,30.1,26.3,0000.0,0000.88,0001.38,0000.71
2023-05-15 12:18:00,,0842.8,5.00,0.00,28.5,26.9,00.0,36.8,30.1,26.3,0000.0,0000.86,0001.37,0000.69
2023-05-15 12:19:00,,0842.8,5.00,0.00,28.5,26.9,00.0,36.8,30.1,26.3,0000.0,0000.85,0001.36,0000.68
2023-05-15 12:20:00,,0842.8,5.00,0.00,28.5,26.9,00.0,36.8,30.1,26.3,0000.0,0000.85,0001.33,0000.67
2023-05-15 12:21:00,,0842.8,5.00,0.00,28.5,26.9,00.0,36.8,30.1,26.3,0000.0,0000.84,0001.24,0000.66
2023-05-15 12:22:00,,0842.8,5.00,0.00,28.5,26.9,00.0,36.8,30.1,26.3,0000.0,0000.84,0001.26,0000.65
2023-05-15 12:23:00,,0842.8,5.00,0.00,28.5,26.9,00.0,36.8,30.1,26.3,0000.0,0000.82,0001.23,0000.64
2023-05-15 12:24:00,,0842.8,4.98,0.00,28.5,26.9,00.0,36.8,30.1,26.3,0000.0,0000.84,0001.28,0000.65
2023-05-15 12:25:00,,0842.8,5.00,0.00,28.5,26.9,00.0,36.8,30.1,26.4,0000.0,0000.88,0001.36,0000.67
2023-05-15 12:26:00,,0842.8,5.00,0.00,28.5,26.9,00.0,36.8,30.1,26.4,0000.0,0000.88,0001.35,0000.68
2023-05-15 12:27:00,,0842.8,4.99,0.00,28.5,26.9,00.0,36.8,30.1,26.4,0000.0,0000.91,0001.38,0000.71
2023-05-15 12:28:00,,0842.8,5.00,0.00,28.5,26.9,00.0,36.8,30.1,26.4,0000.0,0000.94,0001.41,0000.74
2023-05-15 12:29:00,,0842.8,5.01,0.00,28.5,26.9,00.0,36.8,30.1,26.5,0000.0,0000.97,0001.46,0000.77
2023-05-15 12:30:00,,0842.8,5.01,0.00,28.5,26.9,00.0,36.8,30.1,26.5,0000.0,0001.00,0001.51,0000.79
2023-05-15 12:31:00,,0842.9,5.01,0.00,28.5,26.9,00.0,36.8,30.1,26.5,0000.0,0001.02,0001.49,0000.82
2023-05-15 12:32:00,,0842.9,5.00,0.00,28.5,26.9,00.0,36.8,30.1,26.5,0000.0,0001.04,0001.50,0000.84
2023-05-15 12:33:00,,0842.9,4.99,0.00,28.5,26.9,00.0,36.8,30.1,26.6,0000.0,0001.07,0001.56,0000.87
2023-05-15 12:34:00,,0842.9,5.00,0.00,28.5,26.9,00.0,36.8,30.1,26.6,0000.0,0001.13,0001.65,0000.89
2023-05-15 12:35:00,,0842.9,5.01,0.00,28.5,26.9,00.0,36.8,30.1,26.7,0000.0,0001.14,0001.66,0000.91
2023-05-15 12:36:00,,0842.9,5.01,0.00,28.5,26.9,00.0,36.8,30.1,26.7,0000.0,0001.14,0001.64,0000.91
2023-05-15 12:37:00,,0842.9,5.00,0.00,28.5,26.9,00.0,36.8,30.1,26.8,0000.0,0001.18,0001.76,0000.93
2023-05-15 12:38:00,,0843.0,4.98,0.00,28.5,26.9,00.0,36.8,30.1,26.9,0000.0,0001.17,0001.74,0000.92
2023-05-15 12:39:00,,0843.0,5.00,0.00,28.5,26.9,00.0,36.8,30.1,26.9,0000.0,0001.15,0001.68,0000.91
2023-05-15 12:40:00,,0843.0,5.01,0.00,28.5,26.9,00.0,36.8,30.1,26.9,0000.0,0001.13,0001.64,0000.91
2023-05-15 12:41:00,,0843.0,4.99,0.00,28.5,26.9,00.0,36.9,30.1,26.9,0000.0,0001.15,0001.66,0000.93
2023-05-15 12:42:00,,0842.9,4.99,0.00,28.5,26.9,00.0,36.8,30.1,26.9,0000.0,0001.20,0001.77,0000.95
2023-05-15 12:43:00,,0842.9,5.00,0.00,28.5,26.9,00.0,36.9,30.1,27.0,0000.0,0001.19,0001.73,0000.96
2023-05-15 12:44:00,,0842.9,5.00,0.00,28.5,26.9,00.0,36.8,30.1,27.0,0000.0,0001.16,0001.67,0000.95
2023-05-15 12:45:00,,0843.0,5.01,0.00,28.5,26.9,00.0,36.8,30.1,26.9,0000.0,0001.13,0001.64,0000.93
2023-05-15 12:46:00,,0842.9,5.01,0.00,28.5,26.9,00.0,36.8,30.1,26.9,0000.0,0001.07,0001.53,0000.89
2023-05-15 12:47:00,,0842.9,4.98,0.00,28.5,26.9,00.0,36.8,30.1,26.9,0000.0,0001.05,0001.49,0000.87
2023-05-15 12:48:00,,0842.8,5.00,0.00,28.5,26.9,00.0,36.8,30.1,26.9,0000.0,0000.99,0001.36,0000.84
2023-05-15 12:49:00,,0842.8,5.00,0.00,28.5,26.9,00.0,36.8,30.1,26.9,0000.0,0000.97,0001.32,0000.82
2023-05-15 12:50:00,,0842.8,4.99,0.00,28.5,26.9,00.0,36.8,30.1,26.9,0000.0,0000.99,0001.39,0000.82
2023-05-15 12:51:00,,0842.8,5.01,0.00,28.5,26.9,00.0,36.8,30.1,26.9,0000.0,0000.99,0001.41,0000.81
2023-05-15 12:52:00,,0842.8,5.01,0.00,28.5,26.9,00.0,36.8,30.1,27.0,0000.0,0000.96,0001.39,0000.78
2023-05-15 12:53:00,,0842.8,5.00,0.00,28.5,26.9,00.0,36.8,30.1,27.0,0000.0,0000.88,0001.22,0000.73
2023-05-15 12:54:00,,0842.8,5.00,0.00,28.5,26.9,00.0,36.9,30.1,27.0,0000.0,0000.84,0001.19,0000.69
2023-05-15 12:55:00,,0842.8,4.99,0.00,28.5,26.9,00.0,36.9,30.1,27.0,0000.0,0000.81,0001.15,0000.66
2023-05-15 12:56:00,,0842.9,5.00,0.00,28.5,26.9,00.0,36.8,30.1,27.0,0000.0,0000.80,0001.12,0000.66
2023-05-15 12:57:00,,0842.9,5.01,0.00,28.5,26.9,00.0,36.8,30.1,27.0,0000.0,0000.82,0001.17,0000.66
2023-05-15 12:58:00,,0842.9,5.00,0.00,28.5,26.9,00.0,36.8,30.1,26.9,0000.0,0000.82,0001.18,0000.66
2023-05-15 12:59:00,,0842.9,5.00,0.00,28.5,26.9,00.0,36.8,30.1,27.0,0000.0,0000.84,0001.20,0000.67
